Waarnemingen

Advertentie
Mijn weer
Edinburgh/Gogarbank, Groot Brittannië (3166): temperatuur & dauwpunt: 08.12.2019 11:00:00 - 14.12.2019 11:00:00 (GMT)Edinburgh/Gogarbank, Groot Brittannië (3166): temperatuur -20cm & temperatuur -100cm: 08.12.2019 11:00:00 - 14.12.2019 11:00:00 (GMT)Edinburgh/Gogarbank, Groot Brittannië (3166): windsnelheid & windstoten: 08.12.2019 11:00:00 - 14.12.2019 11:00:00 (GMT)Edinburgh/Gogarbank, Groot Brittannië (3166): windrichting: 08.12.2019 11:00:00 - 14.12.2019 11:00:00 (GMT)Edinburgh/Gogarbank, Groot Brittannië (3166): luchtdruk: 08.12.2019 11:00:00 - 14.12.2019 11:00:00 (GMT)Edinburgh/Gogarbank, Groot Brittannië (3166): zicht: 08.12.2019 11:00:00 - 14.12.2019 11:00:00 (GMT)Edinburgh/Gogarbank, Groot Brittannië (3166): Zonneschijnduur: 08.12.2019 11:00:00 - 14.12.2019 11:00:00 (GMT)Edinburgh/Gogarbank, Groot Brittannië (3166): neerslag: 08.12.2019 11:00:00 - 14.12.2019 11:00:00 (GMT)
Datum & Tijd tt [°C] td [°C] tt -20cm [°C] tt -100cm [°C] ff [km/u] ff [kn] fx [km/u] fx [kn] dd ppp [hPa] vv [km] sd [min] rr [mm]
14.12.2019 11:00:00 2,5 1,6 - - 21 11 - - ZW 976,0 50 0 0,6
14.12.2019 10:00:00 2,8 1,8 - - 21 11 - - WZW 975,7 18 0 1,0
14.12.2019 09:00:00 3,1 1,9 6,4 7,7 22 12 - - W 975,1 13 0 0,0
14.12.2019 08:00:00 3,6 2,4 - - 24 13 - - W 974,3 30 0 0,2
14.12.2019 07:00:00 3,3 2,0 - - 18 10 - - WZW 973,9 30 0 0,2
14.12.2019 06:00:00 3,2 1,8 - - 24 13 - - WZW 973,5 50 0 0,0
14.12.2019 05:00:00 4,0 2,4 - - 28 15 46 25 WZW 972,7 22 0 0,0
14.12.2019 04:00:00 4,0 2,3 - - 26 14 - - WZW 972,4 35 0 0,0
14.12.2019 03:00:00 4,3 2,8 - - 26 14 - - WZW 972,1 17 0 0,2
14.12.2019 02:00:00 3,8 2,7 - - 21 11 - - WZW 972,1 21 0 0,0
14.12.2019 01:00:00 3,6 2,3 - - 15 8 - - W 972,0 45 0 0,0
14.12.2019 00:00:00 3,5 2,4 - - 16 9 - - ZW 972,1 7 - 0,0
13.12.2019 23:00:00 3,9 2,3 - - 16 9 - - ZW 972,2 50 0 0,0
13.12.2019 22:00:00 3,7 2,2 - - 16 9 - - ZW 972,3 50 0 0,0
13.12.2019 21:00:00 2,9 1,5 - - 13 7 - - ZW 972,5 50 0 0,0
13.12.2019 20:00:00 3,1 1,6 - - 13 7 - - ZW 972,9 50 0 0,0
13.12.2019 19:00:00 3,3 1,7 - - 13 7 - - WZW 973,0 50 0 0,0
13.12.2019 18:00:00 3,6 1,8 - - 15 8 - - ZW 973,3 50 0 0,0
13.12.2019 17:00:00 4,9 2,5 - - 16 9 - - WZW 973,4 50 0 0,0
13.12.2019 16:00:00 5,4 2,9 - - 15 8 - - WZW 973,6 50 0 0,0
13.12.2019 15:00:00 5,5 2,8 - - 18 10 - - WZW 973,4 50 0 0,0
13.12.2019 14:00:00 5,6 2,8 - - 21 11 - - WZW 973,1 50 0 0,0
13.12.2019 13:00:00 5,8 3,2 - - 21 11 - - WZW 972,8 50 6 0,0
13.12.2019 12:00:00 4,4 2,6 - - 15 8 - - WZW 972,1 50 0 0,0
13.12.2019 11:00:00 4,2 2,3 - - 21 11 - - WZW 972,0 45 0 0,0
13.12.2019 10:00:00 4,0 2,4 - - 21 11 - - WZW 971,8 50 0 0,0
13.12.2019 09:00:00 3,8 2,5 6,5 7,7 22 12 - - WZW 971,2 19 0 0,0
13.12.2019 08:00:00 4,0 2,5 - - 21 11 - - WZW 970,6 50 0 0,0
13.12.2019 07:00:00 3,8 2,6 - - 18 10 - - W 969,9 40 0 0,0
13.12.2019 06:00:00 3,7 2,7 - - 18 10 - - WZW 969,4 20 0 0,2
13.12.2019 05:00:00 4,2 3,3 - - 15 8 - - W 969,1 16 0 0,0
13.12.2019 04:00:00 4,3 3,7 - - 15 8 - - W 969,0 12 0 0,0
13.12.2019 03:00:00 4,0 3,7 - - 15 8 - - W 969,2 6 0 0,0
13.12.2019 02:00:00 3,8 3,6 - - 11 6 - - W 969,0 3,0 0 0,6
13.12.2019 01:00:00 3,4 3,1 - - 11 6 - - WZW 969,1 1,4 0 0,2
13.12.2019 00:00:00 3,1 2,7 - - 8 4 - - WZW 969,6 4,0 - 0,2
12.12.2019 23:00:00 2,9 2,4 - - 4 2 - - ZW 970,2 4,8 0 0,2
12.12.2019 22:00:00 3,0 2,2 - - 2 1 - - WNW 970,7 6 0 0,0
12.12.2019 21:00:00 3,1 2,1 - - 2 1 - - WNW 971,7 8 0 0,0
12.12.2019 20:00:00 3,1 2,1 - - 5 3 - - ONO 972,9 11 0 0,0
12.12.2019 19:00:00 3,2 2,0 - - 8 4 - - ONO 973,8 10 0 0,0
12.12.2019 18:00:00 3,4 1,9 - - 9 5 - - O 975,1 24 0 0,0
12.12.2019 17:00:00 3,8 1,8 - - 13 7 - - O 976,5 35 0 0,0
12.12.2019 16:00:00 4,0 2,0 - - 9 5 - - O 977,6 35 0 0,0
12.12.2019 15:00:00 4,5 2,0 - - 8 4 - - ONO 979,0 45 0 0,0
12.12.2019 14:00:00 4,7 1,9 - - 8 4 - - ZZO 980,1 50 18 0,0
12.12.2019 13:00:00 4,9 1,9 - - 8 4 - - ONO 981,3 40 48 0,0
12.12.2019 12:00:00 3,8 1,7 - - 9 5 - - O 983,0 35 0 0,0
12.12.2019 11:00:00 2,7 1,5 - - 8 4 - - NO 984,3 30 0 0,0
12.12.2019 10:00:00 1,8 0,5 - - 4 2 - - N 985,4 45 0 0,0
12.12.2019 09:00:00 3,1 0,8 6,7 7,7 9 5 - - WZW 986,1 35 0 0,0
12.12.2019 08:00:00 3,8 0,6 - - 11 6 - - ZW 987,0 30 0 0,0
12.12.2019 07:00:00 3,7 0,5 - - 15 8 - - ZW 987,6 21 0 0,0
12.12.2019 06:00:00 3,8 0,2 - - 18 10 - - ZW 988,4 23 0 0,0
12.12.2019 05:00:00 3,6 -0,1 - - 21 11 - - ZW 989,2 24 0 0,0
12.12.2019 04:00:00 2,9 -0,2 - - 16 9 - - ZW 990,1 25 0 0,0
12.12.2019 03:00:00 2,9 -0,1 - - 21 11 - - ZW 991,1 30 0 0,0
12.12.2019 02:00:00 3,1 0,4 - - 21 11 - - ZW 991,9 23 0 0,0
12.12.2019 01:00:00 3,3 1,0 - - 22 12 - - ZW 992,4 23 0 0,0
12.12.2019 00:00:00 3,2 1,0 - - 13 7 - - ZW 993,2 23 - 0,0
11.12.2019 23:00:00 2,9 0,9 - - 22 12 - - ZW 993,5 50 0 0,0
11.12.2019 22:00:00 3,5 1,1 - - 22 12 - - ZW 993,5 45 0 0,0
11.12.2019 21:00:00 3,4 1,1 - - 18 10 - - ZW 993,6 45 0 0,0
11.12.2019 20:00:00 3,5 1,1 - - 24 13 - - ZW 993,5 50 0 0,0
11.12.2019 19:00:00 3,4 1,4 - - 22 12 - - ZW 993,6 50 0 0,0
11.12.2019 18:00:00 3,3 0,8 - - 28 15 - - ZW 993,1 50 0 0,0
11.12.2019 17:00:00 3,6 1,2 - - 26 14 - - ZW 992,7 45 0 0,0
11.12.2019 16:00:00 3,9 1,9 - - 18 10 - - ZW 993,0 50 0 0,2
11.12.2019 15:00:00 4,2 1,5 - - 24 13 46 25 ZW 992,1 50 12 0,0
11.12.2019 14:00:00 5,1 1,6 - - 26 14 - - WZW 992,1 35 24 0,0
11.12.2019 13:00:00 5,3 1,2 - - 28 15 48 26 WZW 992,2 50 42 0,0
11.12.2019 12:00:00 4,9 1,2 - - 31 17 57 31 ZW 992,5 45 48 0,0
11.12.2019 11:00:00 5,1 0,4 - - 35 19 57 31 ZW 992,3 35 42 0,0
11.12.2019 10:00:00 4,7 0,7 - - 35 19 55 30 ZW 992,8 50 0 0,0
11.12.2019 09:00:00 4,4 0,7 7,0 7,9 34 18 50 27 ZW 993,0 45 0 0,0
11.12.2019 08:00:00 4,8 0,7 - - 34 18 54 29 ZW 993,1 35 0 0,0
11.12.2019 07:00:00 4,7 1,0 - - 31 17 57 31 ZW 993,1 21 0 0,0
11.12.2019 06:00:00 4,6 0,7 - - 35 19 65 35 ZW 993,3 23 0 0,0
11.12.2019 05:00:00 4,5 1,2 - - 35 19 57 31 ZW 993,7 18 0 0,0
11.12.2019 04:00:00 4,8 1,8 - - 34 18 50 27 ZW 994,3 14 0 0,0
11.12.2019 03:00:00 5,0 2,4 - - 26 14 46 25 ZW 995,2 11 0 0,0
11.12.2019 02:00:00 4,1 1,5 - - 21 11 48 26 ZW 995,2 22 0 0,2
11.12.2019 01:00:00 4,0 2,0 - - 24 13 61 33 ZW 994,5 27 0 0,4
11.12.2019 00:00:00 4,3 2,3 - - 26 14 50 27 ZW 993,7 25 - 0,8
10.12.2019 23:00:00 4,7 2,0 - - 31 17 57 31 ZW 993,0 40 0 0,0
10.12.2019 22:00:00 5,2 2,4 - - 28 15 52 28 WZW 991,5 30 0 0,0
10.12.2019 21:00:00 5,0 2,9 - - 21 11 48 26 WZW 990,6 20 0 0,2
10.12.2019 20:00:00 5,5 3,0 - - 28 15 55 30 ZW 989,5 24 0 0,0
10.12.2019 19:00:00 5,7 2,8 - - 29 16 57 31 WZW 988,3 30 0 0,0
10.12.2019 18:00:00 5,9 3,7 - - 28 15 54 29 WZW 987,1 45 0 0,6
10.12.2019 17:00:00 6,6 5,0 - - 35 19 54 29 WZW 985,7 10 0 1,0
10.12.2019 16:00:00 7,9 5,8 - - 39 21 78 42 W 984,5 19 0 1,2
10.12.2019 15:00:00 12,5 10,6 - - 48 26 80 43 ZZW 980,9 5 0 1,0
10.12.2019 14:00:00 12,5 9,8 - - 44 24 85 46 ZZW 981,4 30 0 0,0
10.12.2019 13:00:00 11,9 9,4 - - 42 23 70 38 ZZW 984,1 6 0 0,8
10.12.2019 12:00:00 11,5 9,0 - - 35 19 70 38 ZZW 987,0 26 0 0,2
10.12.2019 11:00:00 10,0 7,6 - - 34 18 70 38 Z 988,9 35 0 0,6
10.12.2019 10:00:00 9,2 6,9 - - 39 21 68 37 ZZW 991,1 15 0 1,0
10.12.2019 09:00:00 8,5 6,3 6,9 7,9 34 18 65 35 ZZW 994,0 17 0 0,8
10.12.2019 08:00:00 8,6 5,6 - - 37 20 67 36 Z 996,5 22 0 0,0
10.12.2019 07:00:00 8,2 5,1 - - 37 20 72 39 ZZW 998,6 29 0 0,0
10.12.2019 06:00:00 7,8 5,3 - - 29 16 57 31 ZZW 1001,3 30 0 0,2
10.12.2019 05:00:00 7,5 5,2 - - 26 14 52 28 Z 1003,7 9 0 0,0
10.12.2019 04:00:00 8,0 4,4 - - 28 15 57 31 ZZW 1006,4 24 0 0,0
10.12.2019 03:00:00 7,5 3,6 - - 29 16 57 31 ZZW 1008,6 20 0 0,0
10.12.2019 02:00:00 6,8 2,9 - - 26 14 46 25 ZZW 1010,8 28 0 0,0
10.12.2019 01:00:00 6,3 2,6 - - 16 9 - - ZZW 1012,3 19 0 0,0
10.12.2019 00:00:00 5,9 2,4 - - 21 11 50 27 ZZW 1014,5 19 - 0,0
09.12.2019 23:00:00 5,6 1,5 - - 18 10 - - ZZW 1015,2 19 0 0,0
09.12.2019 22:00:00 4,9 0,9 - - 13 7 - - ZZW 1016,6 20 0 0,0
09.12.2019 21:00:00 4,7 1,0 - - 13 7 - - ZW 1016,8 18 0 0,0
09.12.2019 20:00:00 3,4 0,5 - - 9 5 - - ZZW 1018,0 23 0 0,0
09.12.2019 19:00:00 3,8 0,1 - - 13 7 - - ZZW 1018,2 27 0 0,0
09.12.2019 18:00:00 2,9 0,0 - - 13 7 - - ZW 1017,5 22 0 0,0
09.12.2019 17:00:00 3,1 -0,2 - - 11 6 - - ZZW 1017,4 25 0 0,0
09.12.2019 16:00:00 4,1 0,0 - - 15 8 - - W 1016,9 30 0 0,0
09.12.2019 15:00:00 5,1 -0,1 - - 13 7 - - W 1015,7 35 - 0,0
09.12.2019 14:00:00 - - - - 16 9 - - W - 40 - 0,0
09.12.2019 13:00:00 - - - - 16 9 - - W - 30 - 0,0
09.12.2019 12:00:00 - - - - 16 9 - - ZW - 30 - 0,0
09.12.2019 11:00:00 4,1 0,1 - - 11 6 - - WZW 1012,2 35 54 0,0
09.12.2019 10:00:00 4,2 -0,2 - - 16 9 - - W 1010,7 50 0 0,0
09.12.2019 09:00:00 3,8 -0,3 7,2 7,7 16 9 - - W 1008,4 30 0 0,0
09.12.2019 08:00:00 3,8 0,2 - - 16 9 - - W 1006,5 50 0 0,0
09.12.2019 07:00:00 4,6 0,6 - - 24 13 - - W 1003,9 35 0 0,0
09.12.2019 06:00:00 4,3 0,6 - - 15 8 - - WNW 1001,0 28 0 0,0
09.12.2019 05:00:00 5,5 0,6 - - 22 12 48 26 NW 998,3 25 0 0,0
09.12.2019 04:00:00 6,1 1,2 - - 26 14 57 31 NW 995,8 35 0 0,0
09.12.2019 03:00:00 6,1 1,8 - - 28 15 48 26 NW 992,9 50 0 0,0
09.12.2019 02:00:00 5,7 2,5 - - 24 13 - - WNW 989,2 50 0 0,0
09.12.2019 01:00:00 4,8 3,1 - - 18 10 - - W 986,5 50 0 0,0
09.12.2019 00:00:00 4,4 3,3 - - 15 8 - - WZW 984,0 50 - 0,0
08.12.2019 23:00:00 4,9 3,2 - - 13 7 - - WZW 981,7 50 0 0,0
08.12.2019 22:00:00 5,1 3,3 - - 22 12 - - WZW 980,0 50 0 0,0
08.12.2019 21:00:00 5,3 3,5 - - 26 14 - - WZW 979,4 50 0 0,2
08.12.2019 20:00:00 5,4 3,7 - - 26 14 46 25 WZW 978,7 11 0 1,0
08.12.2019 19:00:00 4,5 3,0 - - 26 14 52 28 ZW 978,2 50 0 0,2
08.12.2019 18:00:00 5,4 3,7 - - 26 14 55 30 ZW 978,5 6 0 1,2
08.12.2019 17:00:00 5,3 3,3 - - 29 16 55 30 ZW 978,5 12 0 0,6
08.12.2019 16:00:00 6,0 2,9 - - 34 18 59 32 ZW 978,5 20 0 0,0
08.12.2019 15:00:00 5,9 3,5 - - 34 18 57 31 ZW 979,4 10 0 0,4
08.12.2019 14:00:00 5,4 3,3 - - 35 19 63 34 ZW 980,2 14 0 0,2
08.12.2019 13:00:00 5,7 3,7 - - 31 17 55 30 ZW 981,3 6 6 1,8
08.12.2019 12:00:00 5,1 3,1 - - 31 17 57 31 W 982,2 9 12 0,4
08.12.2019 11:00:00 6,5 3,5 - - 29 16 61 33 WZW 982,6 16 12 0,2

tt = temperatuur
td = dauwpunt
tt -20cm = temperatuur -20cm
tt -100cm = temperatuur -100cm
ff = windsnelheid
fx = windstoten
dd = windrichting
ppp = luchtdruk
vv = zicht
sd = Zonneschijnduur
rr = neerslag

Weerstations in de omgeving